Location: Hamayl? Da??
(36.7028°N, 30.1716°E)
Time: 18:40:17
(UTC+00:00)

Tiros 1 - All Passes

Search period start: 07 November 2024 00:00
Search period end: 17 November 2024 00:00
Orbit: 622 x 654 km, 48.4° (Epoch: 06 November)

Date Brightness Start Highest point End Pass type
(mag) Time Alt. Az. Time Alt. Az. Time Alt. Az.
07 Nov - 01:34:18 10° WSW 01:35:22 11° SW 01:36:26 10° SW night (unlit)
07 Nov - 15:40:23 10° SSW 15:44:26 29° SE 15:48:31 10° ENE visible
07 Nov - 17:21:37 10° WSW 17:26:15 54° NNW 17:30:56 10° NE visible
07 Nov - 19:05:19 10° WNW 19:09:02 22° N 19:12:46 10° NE visible
07 Nov - 20:48:37 10° NW 20:52:18 22° N 20:55:58 10° ENE night (unlit)
07 Nov - 22:30:29 10° NW 22:35:08 51° NNE 22:39:44 10° ESE night (unlit)
08 Nov - 00:12:48 10° WNW 00:16:59 31° SW 00:21:07 10° SSE night (unlit)
08 Nov - 16:02:40 10° SW 16:07:20 65° SE 16:12:03 10° ENE visible
08 Nov - 17:45:20 10° W 17:49:36 32° NNW 17:53:54 10° NE visible
08 Nov - 19:29:14 10° NW 19:32:43 20° N 19:36:11 10° NE night (unlit)
08 Nov - 21:11:45 10° NW 21:15:53 28° NNE 21:20:00 10° E night (unlit)
08 Nov - 22:53:32 10° NW 22:58:18 83° SW 23:03:01 10° SE night (unlit)
09 Nov - 00:37:24 10° W 00:39:43 14° SW 00:42:01 10° SSW night (unlit)
09 Nov - 14:44:58 10° S 14:48:44 24° SE 14:52:31 10° E daylight
09 Nov - 16:25:45 10° WSW 16:30:26 63° NNW 16:35:10 10° NE visible
09 Nov - 18:09:20 10° WNW 18:13:08 23° NNW 18:16:57 10° NE visible
09 Nov - 19:52:47 10° NW 19:56:23 21° N 19:59:59 10° ENE night (unlit)
09 Nov - 21:34:43 10° NW 21:39:18 45° NNE 21:43:50 10° E night (unlit)
09 Nov - 23:16:52 10° WNW 23:21:15 38° SW 23:25:36 10° SSE night (unlit)
10 Nov - 15:07:00 10° SW 15:11:34 54° SE 15:16:11 10° ENE daylight
10 Nov - 16:49:22 10° W 16:53:44 36° NNW 16:58:07 10° NE visible
10 Nov - 18:33:17 10° NW 18:36:46 20° N 18:40:16 10° NE visible
10 Nov - 20:15:58 10° NW 20:19:59 26° NNE 20:24:00 10° ENE night (unlit)
10 Nov - 21:57:43 10° NW 22:02:30 84° NE 22:07:14 10° SE night (unlit)
10 Nov - 23:41:01 10° W 23:44:01 17° SW 23:47:00 10° S night (unlit)
11 Nov - 13:49:38 10° S 13:53:00 20° SE 13:56:24 10° E daylight
11 Nov - 15:29:54 10° WSW 15:34:36 73° NW 15:39:21 10° NE visible
11 Nov - 17:13:19 10° WNW 17:17:12 25° NNW 17:21:07 10° NE visible
11 Nov - 18:56:54 10° NW 19:00:26 20° N 19:03:59 10° NE visible
11 Nov - 20:38:56 10° NW 20:43:25 39° NNE 20:47:53 10° E night (unlit)
11 Nov - 22:20:57 10° WNW 22:25:29 46° SW 22:30:00 10° SSE night (unlit)
12 Nov - 14:11:20 10° SSW 14:15:47 44° SE 14:20:17 10° ENE daylight
12 Nov - 15:53:23 10° W 15:57:50 40° NNW 16:02:19 10° NE visible
12 Nov - 17:37:16 10° NW 17:40:48 20° N 17:44:21 10° NE visible
12 Nov - 19:20:08 10° NW 19:24:02 24° NNE 19:27:57 10° ENE night (unlit)
12 Nov - 21:01:53 10° NW 21:06:40 72° NE 21:11:23 10° ESE night (unlit)
12 Nov - 22:44:47 10° W 22:48:16 20° SW 22:51:45 10° S night (unlit)
13 Nov - 12:54:24 10° SSE 12:57:16 16° SE 13:00:07 10° E daylight
13 Nov - 14:34:03 10° SW 14:38:45 86° NW 14:43:30 10° NE daylight
13 Nov - 16:17:15 10° WNW 16:21:15 26° NNW 16:25:17 10° NE visible
13 Nov - 18:00:58 10° NW 18:04:27 20° N 18:07:56 10° NE visible
13 Nov - 19:43:07 10° NW 19:47:30 35° NNE 19:51:52 10° E night (unlit)
13 Nov - 21:25:02 10° WNW 21:29:41 55° SW 21:34:18 10° SE night (unlit)
14 Nov - 13:15:42 10° SSW 13:19:59 36° SE 13:24:18 10° ENE daylight
14 Nov - 14:57:24 10° WSW 15:01:55 45° NNW 15:06:29 10° NE daylight
14 Nov - 16:41:13 10° WNW 16:44:48 21° N 16:48:24 10° NE visible
14 Nov - 18:24:16 10° NW 18:28:04 23° NNE 18:31:51 10° ENE visible
14 Nov - 20:06:02 10° NW 20:10:46 62° NNE 20:15:27 10° ESE night (unlit)
14 Nov - 21:48:38 10° WNW 21:52:29 25° SW 21:56:19 10° S night (unlit)
15 Nov - 11:59:25 10° SSE 12:01:30 13° SE 12:03:36 10° ESE daylight
15 Nov - 13:38:12 10° SW 13:42:52 81° SE 13:47:37 10° ENE daylight
15 Nov - 15:21:11 10° W 15:25:16 29° NNW 15:29:24 10° NE visible
15 Nov - 17:04:59 10° NW 17:08:26 19° N 17:11:53 10° NE visible
15 Nov - 18:47:16 10° NW 18:51:32 32° NNE 18:55:48 10° E visible
15 Nov - 20:29:06 10° WNW 20:33:49 67° SW 20:38:31 10° SE night (unlit)
15 Nov - 22:14:33 10° WSW 22:15:07 10° SW 22:15:41 10° SW night (unlit)
16 Nov - 12:20:07 10° SSW 12:24:09 30° SE 12:28:15 10° ENE daylight
16 Nov - 14:01:25 10° WSW 14:05:58 52° NNW 14:10:36 10° NE daylight
16 Nov - 15:45:08 10° WNW 15:48:47 22° N 15:52:27 10° NE visible
16 Nov - 17:28:21 10° NW 17:32:02 22° N 17:35:43 10° ENE visible
16 Nov - 19:10:10 10° NW 19:14:50 53° NNE 19:19:29 10° ESE night (unlit)
16 Nov - 20:52:31 10° WNW 20:56:40 30° SW 21:00:46 10° SSE night (unlit)
